Weather History for Beatrice, NE

Change the Weather History Date:

Sunday, January 26, 2014

  Actual Average Record
Temperature  
Mean Temperature 34 °F -  
Max Temperature 57 °F 36 °F 66 °F (2002)
Min Temperature 12 °F 17 °F -10 °F (1950)
Degree Days  
Heating Degree Days 30    
Moisture  
Dew Point 19 °F    
Average Humidity 45    
Maximum Humidity 72    
Minimum Humidity 26    
Precipitation  
Precipitation 0.00 in - - ()
Sea Level Pressure  
Sea Level Pressure 29.80 in    
Wind  
Wind Speed 19 mph (NW)    
Max Wind Speed 41 mph    
Max Gust Speed 51 mph    
Visibility 10 miles    
Events      
Averages and records for this station are not official NWS values.
T = Trace of Precipitation, MM = Missing Value Source: NWS Daily Summary

Daily Weather History Graph

Daily Weather History Graph

Search for Another Location

Airport:

Trip Planner

Search our weather history database for the weather conditions in past years. The results will help you decide how hot, cold, wet, or windy it might be!

Date:

Astronomy

Jan. 26, 2014 Rise Set
Actual Time 7:41 AM CST 5:38 PM CST
Civil Twilight 7:12 AM CST 6:07 PM CST
Nautical Twilight 6:39 AM CST 6:40 PM CST
Astronomical Twilight 6:07 AM CST 7:12 PM CST
Moon 3:19 AM CST (1/26) 1:28 PM CST (1/26)
Length of Visible Light 10h 55m
Length of Day
9h 57m
Waning Crescent, 23% of the Moon is Illuminated
Jan 26
Waning Crescent
Jan 30
New
Feb 6
First Quarter
Feb 14
Full
Feb 22
Last Quarter

Hourly Weather History & Observations

Time (CST) Temp. Windchill Dew Point Humidity Pressure Visibility Wind Dir Wind Speed Gust Speed Precip Events Conditions
12:15 AM 44.2 °F 36.7 °F 31.1 °F 60% 29.62 in 10.0 mi SW 17.3 mph - N/A   Clear
12:35 AM 45.9 °F 37.4 °F 30.7 °F 56% 29.61 in 10.0 mi WSW 24.2 mph 32.2 mph N/A   Clear
12:55 AM 45.5 °F 38.3 °F 30.2 °F 55% 29.61 in 10.0 mi WSW 17.3 mph 28.8 mph N/A   Clear
1:15 AM 45.9 °F 37.8 °F 29.7 °F 53% 29.61 in 10.0 mi West 21.9 mph 29.9 mph N/A   Clear
1:35 AM 45.9 °F 38.0 °F 28.9 °F 52% 29.61 in 10.0 mi West 20.7 mph 26.5 mph N/A   Clear
1:55 AM 45.5 °F 38.3 °F 28.4 °F 51% 29.61 in 10.0 mi West 17.3 mph 24.2 mph N/A   Clear
2:15 AM 46.9 °F - 27.5 °F 47% 29.61 in 10.0 mi West 18.4 mph 26.5 mph N/A   Clear
2:35 AM 46.2 °F 39.0 °F 27.0 °F 47% 29.62 in 10.0 mi West 18.4 mph 26.5 mph N/A   Clear
2:55 AM 45.5 °F 39.6 °F 26.6 °F 48% 29.63 in 10.0 mi West 12.7 mph - N/A   Clear
3:15 AM 45.1 °F 38.8 °F 26.1 °F 47% 29.64 in 10.0 mi WNW 13.8 mph - N/A   Clear
3:35 AM 44.6 °F 37.8 °F 25.9 °F 48% 29.64 in 10.0 mi West 15.0 mph 20.7 mph N/A   Scattered Clouds
3:55 AM 43.9 °F 37.9 °F 26.1 °F 50% 29.64 in 10.0 mi West 11.5 mph - N/A   Scattered Clouds
4:15 AM 42.1 °F 35.7 °F 25.7 °F 52% 29.64 in 10.0 mi West 11.5 mph - N/A   Clear
4:35 AM 38.8 °F 33.2 °F 24.8 °F 57% 29.64 in 10.0 mi West 8.1 mph - N/A   Clear
4:55 AM 37.8 °F 31.3 °F 25.2 °F 60% 29.64 in 10.0 mi West 9.2 mph - N/A   Clear
5:15 AM 36.9 °F 30.7 °F 24.6 °F 61% 29.65 in 10.0 mi West 8.1 mph - N/A   Clear
5:35 AM 35.6 °F 30.7 °F 24.1 °F 63% 29.66 in 10.0 mi West 5.8 mph - N/A   Clear
5:55 AM 34.9 °F 28.3 °F 24.1 °F 65% 29.66 in 10.0 mi WNW 8.1 mph - N/A   Clear
6:15 AM 37.4 °F 30.8 °F 25.7 °F 63% 29.67 in 10.0 mi WNW 9.2 mph - N/A   Clear
6:35 AM 37.4 °F 31.4 °F 25.7 °F 63% 29.68 in 10.0 mi West 8.1 mph - N/A   Clear
6:55 AM 36.9 °F 29.6 °F 26.2 °F 65% 29.69 in 10.0 mi WNW 10.4 mph - N/A   Clear
7:15 AM 39.2 °F 32.5 °F 29.5 °F 68% 29.69 in 10.0 mi NW 10.4 mph - N/A   Clear
7:35 AM 39.4 °F 32.3 °F 30.2 °F 70% 29.69 in 10.0 mi NW 11.5 mph - N/A   Clear
7:55 AM 38.3 °F 30.9 °F 29.8 °F 72% 29.70 in 10.0 mi NW 11.5 mph - N/A   Clear
8:15 AM 39.2 °F 32.5 °F 29.8 °F 69% 29.71 in 10.0 mi NW 10.4 mph - N/A   Clear
8:35 AM 41.0 °F 35.2 °F 30.0 °F 65% 29.71 in 10.0 mi NW 9.2 mph - N/A   Clear
8:55 AM 42.6 °F 37.2 °F 30.2 °F 61% 29.71 in 10.0 mi NW 9.2 mph - N/A   Clear
9:15 AM 44.2 °F 38.4 °F 30.2 °F 58% 29.71 in 10.0 mi West 11.5 mph - N/A   Clear
9:35 AM 44.8 °F 38.3 °F 30.4 °F 57% 29.71 in 10.0 mi West 13.8 mph - N/A   Clear
9:55 AM 46.0 °F 39.0 °F 30.0 °F 54% 29.72 in 10.0 mi WNW 17.3 mph 23.0 mph N/A   Clear
10:15 AM 47.5 °F - 29.3 °F 49% 29.72 in 10.0 mi WNW 18.4 mph 23.0 mph N/A   Clear
10:35 AM 48.9 °F - 28.0 °F 44% 29.72 in 10.0 mi NW 17.3 mph - N/A   Clear
10:55 AM 49.5 °F - 27.0 °F 42% 29.72 in 10.0 mi NW 20.7 mph 25.3 mph N/A   Clear
11:15 AM 50.4 °F - 26.6 °F 40% 29.71 in 10.0 mi WNW 16.1 mph 23.0 mph N/A   Clear
11:35 AM 51.6 °F - 26.8 °F 38% 29.70 in 10.0 mi WNW 17.3 mph 21.9 mph N/A   Clear
11:55 AM 52.7 °F - 26.1 °F 36% 29.69 in 10.0 mi WNW 13.8 mph 23.0 mph N/A   Clear
12:15 PM 53.6 °F - 25.5 °F 34% 29.68 in 10.0 mi WNW 18.4 mph 25.3 mph N/A   Clear
12:35 PM 53.6 °F - 25.0 °F 33% 29.67 in 10.0 mi WNW 21.9 mph 29.9 mph N/A   Clear
12:55 PM 53.6 °F - 25.9 °F 34% 29.66 in 10.0 mi WNW 17.3 mph 25.3 mph N/A   Clear
1:15 PM 56.3 °F - 24.4 °F 29% 29.65 in 10.0 mi WNW 23.0 mph 29.9 mph N/A   Clear
1:35 PM 56.1 °F - 24.8 °F 30% 29.64 in 10.0 mi WNW 21.9 mph 31.1 mph N/A   Clear
1:55 PM 57.7 °F - 25.7 °F 29% 29.64 in 10.0 mi WNW 23.0 mph 28.8 mph N/A   Clear
2:15 PM 56.5 °F - 24.6 °F 29% 29.63 in 10.0 mi WNW 35.7 mph 43.7 mph N/A   Scattered Clouds
2:35 PM 57.9 °F - 23.4 °F 26% 29.63 in 10.0 mi WNW 20.7 mph 31.1 mph N/A   Scattered Clouds
2:55 PM 56.7 °F - 22.6 °F 27% 29.64 in 10.0 mi WNW 29.9 mph 38.0 mph N/A   Overcast
3:15 PM 55.9 °F - 23.7 °F 29% 29.65 in 10.0 mi NW 17.3 mph 27.6 mph N/A   Overcast
3:35 PM 55.2 °F - 23.4 °F 29% 29.66 in 10.0 mi NW 27.6 mph 34.5 mph N/A   Overcast
3:55 PM 54.5 °F - 23.7 °F 30% 29.67 in 10.0 mi NNW 18.4 mph 34.5 mph N/A   Overcast
4:15 PM 50.4 °F - 27.1 °F 41% 29.73 in 10.0 mi NNW 41.4 mph 49.5 mph N/A   Overcast
4:35 PM 42.8 °F 31.1 °F 25.3 °F 50% 29.79 in 10.0 mi NNW 38.0 mph 48.3 mph N/A   Overcast
4:55 PM 38.8 °F 26.2 °F 20.1 °F 47% 29.84 in 10.0 mi North 34.5 mph 48.3 mph N/A   Overcast
5:15 PM 37.4 °F 24.6 °F 19.4 °F 48% 29.87 in 10.0 mi NNW 32.2 mph 38.0 mph N/A   Overcast
5:35 PM 35.1 °F 21.4 °F 19.2 °F 53% 29.89 in 10.0 mi NNW 32.2 mph 44.9 mph N/A   Overcast
5:55 PM 34.5 °F 21.8 °F 16.0 °F 47% 29.92 in 10.0 mi NNW 26.5 mph 43.7 mph N/A   Overcast
6:15 PM 32.2 °F 16.8 °F 10.6 °F 41% 29.96 in 10.0 mi NNW 35.7 mph 48.3 mph N/A   Overcast
6:35 PM 31.5 °F 17.6 °F 8.1 °F 37% 29.99 in 10.0 mi North 26.5 mph 42.6 mph N/A   Overcast
6:55 PM 28.6 °F 13.0 °F -2.0 °F 27% 30.02 in 10.0 mi NNW 29.9 mph 46.0 mph N/A   Overcast
7:15 PM 26.6 °F 9.8 °F -2.9 °F 28% 30.06 in 10.0 mi NNW 32.2 mph 50.6 mph N/A   Overcast
7:35 PM 25.5 °F 7.8 °F -2.4 °F 30% 30.08 in 10.0 mi North 34.5 mph 46.0 mph N/A   Overcast
7:55 PM 24.4 °F 5.7 °F -2.0 °F 32% 30.10 in 10.0 mi NNW 38.0 mph 47.2 mph N/A   Mostly Cloudy
8:15 PM 23.0 °F 4.4 °F 0.9 °F 38% 30.12 in 10.0 mi North 34.5 mph 43.7 mph N/A   Scattered Clouds
8:35 PM 21.2 °F 2.7 °F 0.1 °F 40% 30.16 in 10.0 mi NNW 31.1 mph 41.4 mph N/A   Clear
8:55 PM 20.7 °F 1.9 °F -0.8 °F 39% 30.17 in 10.0 mi North 31.1 mph 36.8 mph N/A   Scattered Clouds
9:15 PM 19.4 °F 1.4 °F -7.4 °F 30% 30.18 in 10.0 mi NNW 26.5 mph 36.8 mph N/A   Mostly Cloudy
9:35 PM 18.5 °F -2.1 °F -9.4 °F 29% 30.21 in 10.0 mi North 35.7 mph 40.3 mph N/A   Overcast
9:55 PM 16.9 °F -3.2 °F -13.2 °F 26% 30.22 in 10.0 mi NNW 31.1 mph 46.0 mph N/A   Scattered Clouds
10:15 PM 15.8 °F -2.3 °F -9.0 °F 33% 30.23 in 10.0 mi North 23.0 mph 32.2 mph N/A   Scattered Clouds
10:35 PM 14.9 °F -5.6 °F -11.7 °F 30% 30.25 in 10.0 mi NNW 29.9 mph 42.6 mph N/A   Mostly Cloudy
10:55 PM 13.6 °F -5.6 °F -10.3 °F 34% 30.27 in 10.0 mi North 24.2 mph 29.9 mph N/A   Scattered Clouds
11:15 PM 12.7 °F -7.5 °F -9.4 °F 37% 30.29 in 10.0 mi North 26.5 mph 34.5 mph N/A   Clear
11:35 PM 12.2 °F -8.6 °F -9.2 °F 38% 30.29 in 10.0 mi North 27.6 mph 33.4 mph N/A   Scattered Clouds
11:55 PM 12.0 °F -5.6 °F -9.4 °F 38% 30.31 in 10.0 mi North 18.4 mph 27.6 mph N/A   Scattered Clouds